Terminal Aerodrome Forecast
Issued by NWS

Home | Current Version | Previous Version | Text Only | Print | Product List | Glossary On
Versions: 1 2 3 4 5 6 7 8 9 10 11 12 13 14 15 16 17 18 19 20 21 22 23 24 25 26 27 28 29 30 31 32 33 34
000
FTAK31 PANC 261138
TAFACD
TAF
PACD 261138Z 2612/2712 12025G36KT P6SM -SNRA OVC035
     FM261500 14012KT P6SM -SHSNRA BKN015 OVC050
     FM261800 18015KT P6SM -SHSNRA BKN025 BKN050
     FM270900 14010KT P6SM VCSH BKN025 OVC050=

USA.gov is the U.S. government's official web portal to all federal, state and local government web resources and services.